Suffolk, VA

4:02 AM EDT on March 30, 2017 (GMT -0400)
Suffolk Municipal

Weather History for KSFQ - January, 2014

Change the Weather History Date:

Thursday, January 23, 2014

  Actual Average Record
Temperature  
Mean Temperature 27 °F -  
Max Temperature 32 °F 51 °F 75 °F (1999)
Min Temperature 21 °F 30 °F 13 °F (1970)
Degree Days  
Heating Degree Days 38    
Moisture  
Dew Point 6 °F    
Average Humidity 39    
Maximum Humidity 46    
Minimum Humidity 33    
Precipitation  
Precipitation 0.00 in - - ()
Sea Level Pressure  
Sea Level Pressure 30.33 in    
Wind  
Wind Speed 9 mph (NW)    
Max Wind Speed 13 mph    
Max Gust Speed 21 mph    
Visibility 10 miles    
Events      
Averages and records for this station are not official NWS values.
T = Trace of Precipitation, MM = Missing Value Source: NWS Daily Summary

Daily Weather History Graph

Daily Weather History Graph

Search for Another Location

Airport or City:

Trip Planner

Search our weather history database for the weather conditions in past years. The results will help you decide how hot, cold, wet, or windy it might be!

Date:

Astronomy

Jan. 23, 2014 Rise Set
Actual Time 7:14 AM EST 5:22 PM EST
Civil Twilight 6:46 AM EST 5:50 PM EST
Nautical Twilight 6:15 AM EST 6:21 PM EST
Astronomical Twilight 5:44 AM EST 6:52 PM EST
Moon No Moon Rise 11:00 AM EST (1/23)
Length of Visible Light 11h 03m
Length of Day
10h 07m
Waning Gibbous, 55% of the Moon is Illuminated
Jan 23
Waning Gibbous
Jan 24
Last Quarter
Jan 30
New
Feb 6
First Quarter
Feb 14
Full

Hourly Weather History & Observations

Time (EST) Temp. Windchill Dew Point Humidity Pressure Visibility Wind Dir Wind Speed Gust Speed Precip Events Conditions
3:35 PM 32.4 °F 24.0 °F 9.0 °F 38% 30.24 in 10.0 mi WSW 10.4 mph 18.4 mph N/A   Clear
3:55 PM 32.4 °F 26.9 °F 10.0 °F 39% 30.24 in 10.0 mi WSW 5.8 mph 9.2 mph N/A   Clear
4:15 PM 32.9 °F 24.1 °F 6.8 °F 33% 30.25 in 10.0 mi West 11.5 mph 18.4 mph N/A   Clear
4:35 PM 32.4 °F 23.0 °F 7.2 °F 35% 30.26 in 10.0 mi WNW 12.7 mph 20.7 mph N/A   Clear
4:55 PM 32.0 °F 22.5 °F 7.9 °F 36% 30.27 in 10.0 mi West 12.7 mph - N/A   Clear
5:15 PM 31.3 °F 23.3 °F 9.0 °F 39% 30.28 in 10.0 mi WNW 9.2 mph - N/A   Clear
5:35 PM 31.1 °F 24.5 °F 9.1 °F 40% 30.29 in 10.0 mi WNW 6.9 mph - N/A   Clear
5:55 PM 30.7 °F 26.0 °F 10.0 °F 42% 30.30 in 10.0 mi West 4.6 mph - N/A   Clear
6:15 PM 30.7 °F 24.1 °F 9.5 °F 41% 30.31 in 10.0 mi WNW 6.9 mph - N/A   Clear
6:35 PM 30.2 °F 25.4 °F 10.0 °F 43% 30.32 in 10.0 mi NW 4.6 mph - N/A   Clear
6:55 PM 30.2 °F 23.4 °F 9.1 °F 41% 30.32 in 10.0 mi NW 6.9 mph - N/A   Clear
7:15 PM 29.1 °F 24.1 °F 10.2 °F 45% 30.33 in 10.0 mi NW 4.6 mph - N/A   Clear
7:35 PM 28.8 °F 23.7 °F 10.2 °F 46% 30.34 in 10.0 mi NW 4.6 mph - N/A   Clear
7:55 PM 29.1 °F 22.1 °F 9.1 °F 43% 30.35 in 10.0 mi NW 6.9 mph - N/A   Clear
8:15 PM 28.4 °F 20.4 °F 7.3 °F 41% 30.35 in 10.0 mi NW 8.1 mph 16.1 mph N/A   Clear
8:35 PM 28.0 °F 18.1 °F 5.7 °F 39% 30.36 in 10.0 mi NW 11.5 mph 18.4 mph N/A   Clear
8:55 PM 27.3 °F 17.7 °F 4.5 °F 38% 30.37 in 10.0 mi NNW 10.4 mph - N/A   Clear
9:35 PM 26.6 °F 15.7 °F 1.2 °F 34% 30.38 in 10.0 mi NW 12.7 mph 17.3 mph N/A   Clear
9:55 PM 25.7 °F 17.1 °F 0.1 °F 33% 30.39 in 10.0 mi NW 8.1 mph 16.1 mph N/A   Clear
10:15 PM 25.0 °F 13.6 °F 2.8 °F 39% 30.40 in 10.0 mi North 12.7 mph 18.4 mph N/A   Clear
10:55 PM 23.4 °F 16.2 °F 1.2 °F 38% 30.41 in 10.0 mi NNW 5.8 mph 17.3 mph N/A   Scattered Clouds
11:15 PM 22.6 °F 11.9 °F 1.0 °F 39% 30.42 in 10.0 mi NNW 10.4 mph 18.4 mph N/A   Clear
11:35 PM 22.1 °F 12.8 °F 1.2 °F 40% 30.42 in 10.0 mi NNW 8.1 mph 16.1 mph N/A   Clear
11:55 PM 21.2 °F 10.9 °F -0.0 °F 40% 30.43 in 10.0 mi NNW 9.2 mph 19.6 mph N/A   Clear